Regional Weather Roundup
Issued by NWS

Home | Current Version | Previous Version | Text Only | Print | Product List | Glossary Off
Versions: 1 2 3 4 5 6 7 8 9 10 11 12 13 14 15 16 17 18 19 20 21 22 23 24 25 26 27 28 29 30 31 32 33 34 35 36 37 38 39 40 41 42 43 44 45 46 47 48 49 50

000
ASUS43 KBIS 240731
RWRND
NORTH DAKOTA REGIONAL WEATHER ROUNDUP
NATIONAL WEATHER SERVICE EASTERN NORTH DAKOTA/GRAND FORKS ND
200 AM CDT TUE APR 24 2018

  NOTE: "FAIR" INDICATES FEW OR NO CLOUDS BELOW 12,000 FEET WITH NO
  SIGNIFICANT WEATHER AND/OR OBSTRUCTIONS TO VISIBILITY.

NDZ001>003-009>011-017-240800-
...NORTHWEST NORTH DAKOTA...

CITY           SKY/WX    TMP DP  RH WIND       PRES   REMARKS
WILLISTON      FAIR      32  23  69 CALM      30.42R
MINOT          FAIR      34  25  69 NW8       30.36R WCI  27
MINOT AFB      FAIR      35  26  69 N10       30.35  WCI  27
$$

NDZ018>021-031>035-040>046-240800-
...SOUTHWEST NORTH DAKOTA...

CITY           SKY/WX    TMP DP  RH WIND       PRES   REMARKS
BISMARCK       RAIN      41  37  86 N23G31    30.30R
DICKINSON      CLOUDY    39  31  72 NE9       30.36R WCI  33
GARRISON         N/A     40  30  67 N10       30.35R WCI  33
HETTINGER      LGT SNOW  32  30  93 N16G26    30.36R FOG     WCI  21
$$

NDZ004>008-012>016-024-026-027-054-240800-
...NORTHEAST NORTH DAKOTA...

CITY           SKY/WX    TMP DP  RH WIND       PRES   REMARKS
GRAND FORKS    CLOUDY    44  37  76 N12       30.25R
GRAND FORKS AF CLOUDY    46  35  64 N14       30.26R
DEVILS LAKE    CLOUDY    42  31  64 N13       30.31R
$$

NDZ022-023-025-028>030-036>039-047>053-240800-
...SOUTHEAST NORTH DAKOTA...

CITY           SKY/WX    TMP DP  RH WIND       PRES   REMARKS
JAMESTOWN      CLOUDY    47  36  65 N18G28    30.25R
FARGO          CLOUDY    50  39  66 N17G24    30.21R
WAHPETON       CLOUDY    50  37  62 N7        30.19R
$$



USA.gov is the U.S. government's official web portal to all federal, state and local government web resources and services.